[[{"header":{"parameterUnit":"m.s-1","parameterCategory":1,"la1":30.2991,"la2":30.254,"lo1":-89.0895,"lo2":-89.0444,"dy":0.0017,"dx":0.0017,"nx":28,"ny":28,"refTime":"2025-08-02T21:00:00:Z","depth":0,"parameterNumber":2,"parameterNumberName":"U-component_of_WINDS"},"data":[0,0,0,0,0,0,0,0,0,0,0,0,0,0,0,0,0,0,0,0,0,0,0,0,0,0,0,0,0,0,0,0,0,0,0,0,0,0,0,0,0,0,0,0,0,0,0,0,0,0,0,0,0,0,0,0,0,0,2.3163,2.3164,0,2.3217,2.3218,2.3218,2.3267,2.3268,2.3269,2.3269,2.3317,2.3317,2.3318,0,0,0,0,0,0,0,0,0,0,0,0,0,2.3098,2.3099,2.3163,2.3164,2.3164,2.3217,2.3218,2.3218,2.3267,2.3268,2.3269,2.3269,2.3316,2.3317,2.3318,0,0,0,0,0,0,0,0,0,0,0,0,0,2.3136,2.3099,2.3163,2.3195,2.3199,2.3217,2.3218,2.3219,2.3267,2.3268,2.3269,2.327,2.3316,2.3317,2.3318,2.3306,0,0,2.3321,2.3322,0,0,0,0,0,0,0,0,2.3134,2.3138,2.319,2.3193,2.3197,2.3237,2.3212,2.3248,2.3267,2.3241,2.3269,2.327,2.3289,2.3292,2.33,2.3308,2.3311,2.3322,2.3322,2.3323,2.3323,0,0,0,0,0,0,0,2.3131,2.3136,2.3184,2.3191,2.3195,2.3206,2.3212,2.3219,2.3259,2.3243,2.3247,2.3253,2.3291,2.3299,2.3301,2.3311,2.3322,2.3322,2.3323,2.3323,2.3315,2.3314,0,0,0,0,0,0,2.3124,2.3134,2.3183,2.3186,2.3167,2.3206,2.3213,2.3223,2.3259,2.3265,2.3252,2.3255,2.3297,2.33,2.3303,2.3293,2.3323,2.3324,2.3324,2.3316,2.3315,2.3314,0,0,0,0,0,0,2.3123,2.3128,2.318,2.3161,2.3169,2.3206,2.3216,2.3223,2.3231,2.3266,2.3272,2.3253,2.3297,2.3302,2.3306,2.3295,2.3324,2.3325,2.3317,2.3316,2.3314,2.3271,0,0,0,0,0,0,2.3121,2.3128,2.3124,2.3161,2.3169,2.3183,2.3216,2.3224,2.3234,2.3238,2.3269,2.3274,2.3299,2.3304,2.3307,2.3297,2.3326,2.3318,2.3316,2.3315,2.3273,2.3268,2.3264,0,0,0,0,0,2.3118,2.3107,2.3124,2.3129,2.3166,2.3183,2.3187,2.3218,2.3233,2.3229,2.3252,2.3273,2.3297,2.3304,2.3308,2.3298,2.3319,2.3317,2.3315,2.3276,2.3269,2.3264,0,0,0,0,0,0,2.3064,2.3112,2.3131,2.3132,2.3153,2.3191,2.3187,2.321,2.3225,2.3228,2.3263,2.3269,2.327,2.3284,2.3293,2.329,2.3311,2.3309,2.3279,2.3274,2.3269,2.3265,2.3327,0,0,0,0,0,2.3053,2.3065,2.3105,2.3102,2.3113,2.3148,2.3156,2.3178,2.3201,2.3209,2.3232,2.3251,2.3263,2.3269,2.3282,2.3277,2.3284,2.3272,2.3267,2.3263,2.3261,2.326,2.3256,2.3308,2.3308,2.3308,0,0,2.3029,2.3057,2.3061,2.3092,2.3111,2.3121,2.3155,2.3163,2.317,2.3209,2.3216,2.3234,2.3257,2.3257,2.3258,2.327,2.3249,2.3261,2.3257,2.3257,2.3258,2.3253,2.3249,2.3306,2.3307,2.3307,0,0,2.2989,2.3012,2.3013,2.3033,2.3063,2.3088,2.3088,2.3124,2.3138,2.3146,2.3176,2.3185,2.3204,2.322,2.3231,2.3203,2.3223,2.3206,2.318,2.3179,2.3175,2.3172,2.3162,2.3158,2.3204,2.3204,2.3204,0,2.2954,2.2972,2.301,2.3018,2.3031,2.3071,2.3072,2.3089,2.312,2.3127,2.3141,2.3168,2.3186,2.3192,2.3186,2.3193,2.3194,2.3201,2.3174,2.317,2.3168,2.3158,2.3155,2.3202,2.3202,2.3202,2.3203,0,2.2928,2.2941,2.2938,2.2971,2.2984,2.2988,2.3025,2.3034,2.3056,2.3079,2.3087,2.3112,2.3131,2.3134,2.3154,2.3143,2.3149,2.3167,2.3189,2.316,2.3152,2.3148,2.3198,2.3199,2.32,2.3201,0,0,2.2852,2.2911,2.2909,2.2926,2.2964,2.2973,2.298,2.3003,2.3009,2.303,2.3036,2.3054,2.3073,2.3085,2.3107,2.3107,2.3084,2.3126,2.3127,2.3117,2.3074,2.3059,2.3054,2.3099,2.3099,2.3098,2.3072,0,2.2818,2.2835,2.2871,2.2875,2.2888,2.2929,2.2935,2.2958,2.2981,2.2993,2.3017,2.3029,2.3053,2.3061,2.3063,2.3086,2.3076,2.3089,2.3103,2.3103,2.3095,2.305,2.3034,2.3007,2.3069,2.3068,2.3068,0,2.278,2.2804,2.2811,2.2852,2.2858,2.2863,2.2888,2.29,2.2928,2.2945,2.2961,2.2988,2.2996,2.3018,2.3029,2.3038,2.3046,2.3059,2.3059,2.3059,2.3082,2.3049,2.3,2.2995,2.3063,2.3064,2.3064,0,2.2724,2.2757,2.2766,2.278,2.2828,2.2831,2.285,2.288,2.2892,2.2913,2.2922,2.2942,2.2953,2.2968,2.2999,2.3012,2.3007,2.3031,2.302,2.3019,2.3015,2.3014,2.2965,2.3022,2.3022,2.3023,2.3023,0,2.2682,2.2684,2.2742,2.2747,2.2752,2.2794,2.2796,2.2819,2.2846,2.2856,2.2892,2.29,2.2941,2.2954,2.2978,2.2984,2.2989,2.3001,2.3007,2.2997,2.2996,2.3002,2.3004,2.3022,2.3022,2.3022,2.3022,0,2.2618,2.2657,2.267,2.2717,2.2729,2.273,2.2769,2.2776,2.2803,2.2814,2.282,2.286,2.2877,2.2911,2.2936,2.2953,2.2953,2.2964,2.2944,2.2948,2.2934,2.2935,2.2886,2.2881,2.2942,2.2941,2.2941,0,2.2587,2.2591,2.264,2.2652,2.2671,2.2688,2.2702,2.2744,2.2757,2.2792,2.2794,2.2815,2.2833,2.2858,2.2888,2.2908,2.292,2.2902,2.2923,2.2913,2.2919,2.2918,2.2918,2.2896,2.2895,2.2894,2.2894,0,2.2529,2.255,2.2571,2.2599,2.2617,2.264,2.2665,2.2671,2.2719,2.2731,2.2751,2.2766,2.2795,2.2814,2.284,2.2858,2.2883,2.2888,2.2886,2.2875,2.2863,2.2869,2.293,2.2888,2.2888,2.2889,2.2889,2.2889,2.2481,2.2487,2.2524,2.2547,2.2572,2.2595,2.2605,2.2635,2.2653,2.2682,2.2705,2.2723,2.2754,2.2791,2.2808,2.2822,2.2834,2.2831,2.283,2.2829,2.2825,2.2863,2.2827,2.2827,2.2827,2.2827,2.2827,0,2.2424,2.2452,2.2473,2.2509,2.2527,2.2555,2.2585,2.2597,2.2614,2.2642,2.2661,2.2685,2.2706,2.274,2.2763,2.2767,2.2779,2.2771,2.277,2.2774,2.2813,2.2812,2.2761,2.2761,2.2761,2.2761,2.2761,2.2761,2.2397,2.241,2.2436,2.2461,2.2488,2.2509,2.2524,2.2546,2.2569,2.2595,2.2614,2.2638,2.2668,2.2694,2.2714,2.2724,2.273,2.2718,2.2731,2.2765,2.2771,2.2777,2.2777,2.2719,2.2719,2.2691,2.2691,2.2691]},{"header":{"parameterUnit":"m.s-1","parameterCategory":1,"la1":30.2991,"la2":30.254,"lo1":-89.0895,"lo2":-89.0444,"dy":0.0017,"dx":0.0017,"nx":28,"ny":28,"refTime":"2025-08-02T21:00:00:Z","depth":0,"parameterNumber":3,"parameterNumberName":"V-component_of_WINDS"},"data":[0,0,0,0,0,0,0,0,0,0,0,0,0,0,0,0,0,0,0,0,0,0,0,0,0,0,0,0,0,0,0,0,0,0,0,0,0,0,0,0,0,0,0,0,0,0,0,0,0,0,0,0,0,0,0,0,0,0,0.7176,0.7179,0,0.7443,0.7446,0.7449,0.752,0.7518,0.7517,0.7515,0.779,0.7799,0.7807,0,0,0,0,0,0,0,0,0,0,0,0,0,0.6722,0.673,0.7175,0.7179,0.7182,0.7443,0.7446,0.745,0.752,0.7518,0.7516,0.7514,0.7787,0.7798,0.7808,0,0,0,0,0,0,0,0,0,0,0,0,0,0.6947,0.6733,0.7175,0.7248,0.7258,0.7442,0.7446,0.7451,0.752,0.7518,0.7516,0.7513,0.7784,0.7797,0.781,0.794,0,0,0.785,0.7856,0,0,0,0,0,0,0,0,0.6934,0.6964,0.7234,0.7244,0.7254,0.7446,0.7387,0.7615,0.7521,0.7421,0.7515,0.7512,0.7677,0.7699,0.7755,0.7953,0.7965,0.7851,0.7859,0.7865,0.7869,0,0,0,0,0,0,0,0.6919,0.6953,0.7281,0.7238,0.725,0.7267,0.7296,0.7431,0.756,0.7429,0.7435,0.7466,0.7682,0.7742,0.7762,0.7969,0.7851,0.7863,0.7871,0.7876,0.8283,0.8286,0,0,0,0,0,0,0.6891,0.6939,0.7273,0.729,0.7085,0.7277,0.731,0.7387,0.7558,0.7582,0.7467,0.7468,0.772,0.7746,0.7772,0.7935,0.7865,0.7877,0.7885,0.828,0.8284,0.8287,0,0,0,0,0,0,0.6881,0.692,0.7262,0.7116,0.7161,0.7288,0.7373,0.7393,0.7453,0.7587,0.761,0.7505,0.772,0.7753,0.7897,0.7946,0.7883,0.7895,0.8277,0.8281,0.8285,0.8263,0,0,0,0,0,0,0.6867,0.6916,0.6968,0.7117,0.7168,0.7384,0.7376,0.74,0.7476,0.7479,0.7628,0.7651,0.772,0.7877,0.791,0.7963,0.7906,0.8273,0.8279,0.8284,0.826,0.8266,0.8271,0,0,0,0,0,0.6851,0.6952,0.697,0.701,0.7236,0.7387,0.7417,0.7494,0.7479,0.7532,0.7617,0.7646,0.7933,0.7891,0.7929,0.7987,0.8271,0.8277,0.8284,0.8258,0.8265,0.8271,0,0,0,0,0,0,0.6809,0.6973,0.6996,0.7148,0.7252,0.7398,0.7469,0.75,0.7612,0.761,0.7701,0.7734,0.7871,0.7943,0.7892,0.8119,0.8102,0.8116,0.8069,0.8077,0.8083,0.8065,0.7917,0,0,0,0,0,0.6816,0.6925,0.7063,0.7184,0.7235,0.7342,0.741,0.746,0.7573,0.7618,0.7714,0.7821,0.7935,0.801,0.8122,0.8268,0.8302,0.8326,0.8331,0.8335,0.8348,0.8429,0.8441,0.8308,0.8308,0.8308,0,0,0.6835,0.6938,0.7002,0.7178,0.7265,0.7375,0.7379,0.7496,0.7578,0.7636,0.7778,0.785,0.7976,0.8121,0.8189,0.8185,0.8391,0.8344,0.8346,0.8357,0.8437,0.8449,0.846,0.8312,0.8312,0.8311,0,0,0.6926,0.7015,0.7125,0.721,0.7341,0.741,0.7435,0.7576,0.7626,0.7769,0.7813,0.791,0.8106,0.8193,0.8263,0.8378,0.8409,0.8411,0.8443,0.852,0.853,0.854,0.8582,0.8596,0.8423,0.8423,0.8423,0,0.6934,0.7102,0.7178,0.7292,0.7367,0.742,0.7531,0.761,0.7771,0.7821,0.7812,0.8055,0.8144,0.8309,0.8336,0.839,0.8422,0.8398,0.8523,0.8533,0.8544,0.8584,0.86,0.8422,0.8422,0.8422,0.8422,0,0.7105,0.7219,0.7292,0.7444,0.7527,0.7639,0.773,0.7803,0.7843,0.7912,0.8055,0.8161,0.8295,0.8336,0.8378,0.8506,0.8499,0.8504,0.849,0.8555,0.8595,0.8611,0.8422,0.8422,0.8422,0.8422,0,0,0.7186,0.7372,0.7398,0.7466,0.761,0.77,0.7811,0.7941,0.8002,0.8108,0.8204,0.8364,0.8369,0.8448,0.8498,0.8565,0.8648,0.8563,0.8567,0.8577,0.8796,0.8793,0.881,0.8666,0.867,0.8672,0.8786,0,0.7297,0.75,0.7568,0.7736,0.7842,0.7889,0.7986,0.8084,0.8149,0.8247,0.8318,0.8431,0.8428,0.8476,0.8544,0.8624,0.8694,0.8616,0.8758,0.8762,0.8729,0.8831,0.8831,0.8933,0.8802,0.8804,0.8806,0,0.7457,0.7563,0.7741,0.7867,0.7914,0.8001,0.8123,0.8215,0.8325,0.8367,0.8451,0.8494,0.8611,0.8583,0.8744,0.8689,0.8749,0.8796,0.8802,0.8822,0.8792,0.8857,0.8968,0.8984,0.8831,0.8829,0.8828,0,0.75,0.7687,0.7817,0.7874,0.8024,0.8083,0.8148,0.8255,0.8326,0.8431,0.8479,0.8595,0.866,0.8749,0.8821,0.8795,0.8975,0.8954,0.9014,0.9012,0.9055,0.9053,0.9181,0.9087,0.9086,0.9086,0.9086,0,0.762,0.7728,0.7838,0.792,0.804,0.8113,0.823,0.8298,0.8391,0.8484,0.853,0.8616,0.8705,0.8802,0.8858,0.8982,0.9011,0.9048,0.9063,0.9047,0.9042,0.9092,0.9088,0.909,0.9089,0.9089,0.9088,0,0.7693,0.7771,0.7916,0.8043,0.8077,0.8161,0.827,0.8349,0.8411,0.8529,0.856,0.866,0.8776,0.8855,0.9005,0.9042,0.9177,0.9189,0.9141,0.9149,0.9205,0.9199,0.9373,0.9399,0.9284,0.9284,0.9285,0,0.7767,0.7851,0.7985,0.805,0.8115,0.8219,0.8292,0.8364,0.8437,0.8564,0.8627,0.8745,0.8845,0.9027,0.9113,0.9226,0.9243,0.9295,0.9261,0.924,0.9246,0.9242,0.9251,0.9302,0.9303,0.9304,0.9305,0,0.7891,0.7924,0.8026,0.814,0.8225,0.8318,0.8413,0.8463,0.8551,0.863,0.8748,0.8825,0.8974,0.9091,0.921,0.9276,0.9306,0.9313,0.9333,0.9321,0.9291,0.931,0.9159,0.9311,0.931,0.931,0.9309,0.9309,0.7969,0.8045,0.815,0.8261,0.8338,0.8423,0.8503,0.8573,0.8673,0.8801,0.8835,0.8958,0.906,0.9223,0.9289,0.9385,0.9381,0.941,0.9418,0.9425,0.9426,0.927,0.9407,0.9407,0.9407,0.9407,0.9406,0,0.8098,0.8166,0.8267,0.8395,0.8481,0.8496,0.8599,0.8671,0.8778,0.887,0.8964,0.9098,0.9209,0.93,0.9414,0.9473,0.9489,0.9501,0.95,0.9515,0.9423,0.9395,0.9486,0.9486,0.9486,0.9486,0.9486,0.9486,0.8176,0.8304,0.8347,0.8511,0.8579,0.8699,0.8756,0.8834,0.8907,0.9054,0.9146,0.9203,0.9294,0.9413,0.9515,0.9539,0.958,0.9589,0.9616,0.953,0.9521,0.9513,0.9488,0.9597,0.9597,0.9701,0.9702,0.9702]}]]